OE6PWE-13 Weather Reports


Display with metric or nautical units.
time (UTC)temp
F
wind
direction
speed
MPH
gust
MPH
rain 1hr
in
rain 24hr
in
rain mn
in
humidity
%
barometer
mb
20260506090021 71 165 2.0 9.0 0.00 0.00 0.00 51 1008.0
20260506084513 70 180 3.0 9.0 0.00 0.00 0.00 54 1008.0
20260506083020 70 189 4.0 8.0 0.00 0.00 0.00 55 1008.0
20260506081513 69 169 1.0 4.0 0.00 0.00 0.00 54 1008.0
20260506071513 66 200 1.0 3.0 0.00 0.00 0.00 69 1009.0
20260506061513 51 0 0.0 0.0 0.00 0.00 0.00 97 1010.0
20260506044513 45 0 0.0 0.0 0.00 0.00 0.00 99 1011.0
20260506043020 45 0 0.0 0.0 0.00 0.00 0.00 99 1011.0
20260506041513 45 0 0.0 0.0 0.00 0.00 0.00 99 1010.0
20260506040021 46 0 0.0 0.0 0.00 0.00 0.00 99 1010.0
20260506034513 46 0 0.0 0.0 0.00 0.00 0.00 98 1010.0
20260506031513 47 270 0.0 2.0 0.00 0.00 0.00 98 1010.0
20260506030021 47 0 0.0 0.0 0.00 0.00 0.00 97 1010.0
20260506024514 48 0 0.0 0.0 0.00 0.00 0.00 97 1010.0
20260506023021 48 0 0.0 0.0 0.00 0.00 0.00 97 1010.0
20260506021513 48 0 0.0 2.0 0.00 0.00 0.00 96 1010.0
20260506020020 48 0 0.0 0.0 0.00 0.00 0.00 96 1009.0
20260506014513 49 0 0.0 0.0 0.00 0.00 0.00 95 1009.0
20260506013021 49 0 0.0 0.0 0.00 0.00 0.00 94 1009.0
20260506011513 50 0 0.0 0.0 0.00 0.00 0.00 93 1009.0
20260506010019 51 0 0.0 0.0 0.00 0.00 0.00 91 1009.0
20260506004513 52 0 0.0 1.0 0.00 0.00 0.00 90 1009.0
20260506003019 54 0 0.0 0.0 0.00 0.00 0.00 87 1009.0
20260506001513 54 0 0.0 2.0 0.00 0.00 0.00 87 1009.0
20260506000019 55 135 0.0 2.0 0.00 0.00 0.00 85 1009.0
20260505234514 55 0 0.0 0.0 0.00 0.00 0.00 84 1009.0
20260505233020 55 135 0.0 2.0 0.00 0.00 0.00 84 1009.0
20260505231518 56 0 0.0 0.0 0.00 0.00 0.00 83 1009.0
20260505230018 56 180 0.0 4.0 0.00 0.00 0.00 82 1009.0
20260505224513 57 0 0.0 2.0 0.00 0.00 0.00 82 1009.0
20260505223021 57 215 2.0 7.0 0.00 0.00 0.00 79 1009.0
20260505221513 57 203 0.0 3.0 0.00 0.00 0.00 80 1009.0
20260505220025 57 29 1.0 8.0 0.00 0.00 0.00 79 1009.0
20260505214513 57 90 1.0 3.0 0.00 0.00 0.00 80 1009.0
20260505213020 57 115 1.0 4.0 0.00 0.00 0.00 79 1009.0
20260505211513 58 135 0.0 3.0 0.00 0.00 0.00 79 1009.0
20260505210021 59 104 1.0 3.0 0.00 0.00 0.00 77 1009.0
20260505204513 59 150 3.0 9.0 0.00 0.00 0.00 76 1009.0
20260505203021 59 146 4.0 12.0 0.00 0.00 0.00 75 1009.0
20260505201513 60 210 3.0 15.0 0.00 0.00 0.00 74 1009.0
20260505200020 59 129 4.0 12.0 0.00 0.00 0.00 74 1009.0
20260505194513 59 176 2.0 9.0 0.00 0.00 0.00 74 1009.0
20260505193021 60 140 2.0 10.0 0.00 0.00 0.00 73 1009.0
20260505191513 60 185 3.0 8.0 0.00 0.00 0.00 71 1009.0
20260505184513 61 331 2.0 5.0 0.00 0.00 0.00 69 1009.0
20260505183020 62 204 3.0 14.0 0.00 0.00 0.00 67 1008.0
20260505181513 62 163 3.0 11.0 0.00 0.00 0.00 65 1009.0
20260505180021 63 184 4.0 10.0 0.00 0.00 0.00 63 1009.0
20260505174513 64 188 4.0 16.0 0.00 0.00 0.00 62 1009.0
20260505173019 65 194 5.0 11.0 0.00 0.00 0.00 60 1008.0
20260505171513 65 166 9.0 28.0 0.00 0.00 0.00 59 1008.0
20260505170020 65 181 10.0 19.0 0.00 0.00 0.00 59 1008.0
20260505164513 65 186 9.0 17.0 0.00 0.00 0.00 59 1009.0
20260505161513 65 187 8.0 20.0 0.00 0.00 0.00 59 1009.0
20260505153020 66 180 10.0 19.0 0.00 0.00 0.00 56 1009.0
20260505151512 67 226 9.0 18.0 0.00 0.00 0.00 56 1009.0
20260505124513 72 175 8.0 23.0 0.00 0.00 0.00 47 1009.0
20260505123020 73 216 9.0 21.0 0.00 0.00 0.00 46 1009.0
20260505121513 74 170 10.0 25.0 0.00 0.00 0.00 44 1009.0
20260505120021 74 190 7.0 16.0 0.00 0.00 0.00 42 1008.0
20260505114513 77 191 7.0 21.0 0.00 0.00 0.00 39 1008.0
20260505113018 76 197 7.0 15.0 0.00 0.00 0.00 39 1008.0
20260505111513 75 173 4.0 13.0 0.00 0.00 0.00 40 1008.0
20260505101513 75 161 7.0 17.0 0.00 0.00 0.00 39 1009.0
20260505100020 75 206 8.0 21.0 0.00 0.00 0.00 37 1008.0
20260505094513 75 175 5.0 16.0 0.00 0.00 0.00 36 1009.0
20260505093020 75 192 5.0 15.0 0.00 0.00 0.00 38 1009.0
20260505091514 75 180 6.0 11.0 0.00 0.00 0.00 36 1009.0